Weather History for PADU - December, 2011

Change the Weather History Date:

Sunday, December 18, 2011

  Actual Average Record
Temperature  
Mean Temperature 33 °F -  
Max Temperature 36 °F 40 °F 51 °F (2010)
Min Temperature 30 °F 29 °F 12 °F (1988)
Degree Days  
Heating Degree Days 32    
Moisture  
Dew Point 24 °F    
Average Humidity 69    
Maximum Humidity 88    
Minimum Humidity 50    
Precipitation  
Precipitation 0.01 in - - ()
Sea Level Pressure  
Sea Level Pressure 29.06 in    
Wind  
Wind Speed 14 mph (WSW)    
Max Wind Speed 21 mph    
Max Gust Speed 30 mph    
Visibility 8 miles    
Events Rain , Snow    
Averages and records for this station are not official NWS values.
T = Trace of Precipitation, MM = Missing Value Source: NWS Daily Summary

Daily Weather History Graph

Daily Weather History Graph

Search for Another Location

Airport or City:

Trip Planner

Search our weather history database for the weather conditions in past years. The results will help you decide how hot, cold, wet, or windy it might be!

Date:

Astronomy

Dec. 18, 2011 Rise Set
Actual Time 10:20 AM AKST 5:44 PM AKST
Civil Twilight 9:37 AM AKST 6:28 PM AKST
Nautical Twilight 8:50 AM AKST 7:14 PM AKST
Astronomical Twilight 8:07 AM AKST 7:57 PM AKST
Moon 2:51 AM AKST (12/18) 1:57 PM AKST (12/18)
Length of Visible Light 8h 51m
Length of Day
7h 24m
Last Quarter, 41% of the Moon is Illuminated
Dec 18
Last Quarter
Dec 24
New
Dec 31
First Quarter
Jan 8
Full
Jan 16
Last Quarter

Hourly Weather History & Observations

Time (AKST) Temp. Windchill Dew Point Humidity Pressure Visibility Wind Dir Wind Speed Gust Speed Precip Events Conditions
12:20 AM 33.8 °F 22.2 °F 30.2 °F 87% 28.80 in 4.0 mi West 20.7 mph - 0.00 in Snow Light Snow
12:56 AM 33.1 °F 23.0 °F 28.9 °F 85% 28.84 in 5.0 mi NW 15.0 mph - 0.00 in Snow Light Snow
1:22 AM 33.8 °F 23.5 °F 28.4 °F 81% 28.84 in 4.0 mi WNW 16.1 mph - 0.00 in Snow Light Snow
1:31 AM 33.8 °F 22.5 °F 28.4 °F 81% 28.84 in 9.0 mi West 19.6 mph - 0.00 in Snow Light Snow
1:56 AM 34.0 °F 23.8 °F 27.0 °F 75% 28.87 in 9.0 mi West 16.1 mph - 0.00 in Snow Light Snow
2:56 AM 33.1 °F 23.4 °F 27.0 °F 78% 28.90 in 9.0 mi West 13.8 mph - 0.00 in Snow Light Snow
3:56 AM 35.1 °F 24.8 °F 23.0 °F 61% 28.92 in 10.0 mi West 17.3 mph - 0.00 in Rain Light Rain
4:23 AM 33.8 °F 23.2 °F 26.6 °F 75% 28.93 in 4.0 mi West 17.3 mph - 0.00 in Snow Light Snow
4:47 AM 33.8 °F 25.8 °F 26.6 °F 75% 28.94 in 8.0 mi West 10.4 mph 19.6 mph 0.00 in Snow Light Snow
4:56 AM 33.1 °F 24.4 °F 25.0 °F 72% 28.96 in 8.0 mi WSW 11.5 mph - 0.00 in Snow Light Snow
5:41 AM 33.8 °F 23.9 °F 26.6 °F 75% 28.96 in 6.0 mi NNW 15.0 mph - 0.00 in Snow Light Snow
5:56 AM 35.1 °F 27.4 °F 21.9 °F 59% 28.99 in 9.0 mi WSW 10.4 mph - 0.00 in   Overcast
6:56 AM 35.1 °F 25.5 °F 23.0 °F 61% 29.01 in 10.0 mi West 15.0 mph 20.7 mph 0.00 in Rain Light Rain
7:56 AM 36.0 °F 27.5 °F 19.0 °F 50% 29.04 in 10.0 mi WSW 12.7 mph - 0.00 in   Scattered Clouds
8:56 AM 32.0 °F 25.6 °F 28.0 °F 85% 29.07 in 5.0 mi NW 6.9 mph - 0.00 in Snow Light Snow
8:58 AM 32.0 °F 26.4 °F 28.4 °F 87% 29.06 in 5.0 mi NW 5.8 mph - 0.00 in Snow Light Snow
9:25 AM 33.8 °F 23.2 °F 26.6 °F 75% 29.06 in 3.0 mi SSW 17.3 mph 23.0 mph 0.00 in Snow Light Snow
9:41 AM 33.8 °F 24.8 °F 26.6 °F 75% 29.08 in 2.5 mi WSW 12.7 mph 20.7 mph 0.00 in Snow Light Snow
9:56 AM 32.0 °F 24.2 °F 28.9 °F 88% 29.10 in 1.5 mi SW 9.2 mph 19.6 mph 0.00 in Snow Light Snow
10:15 AM 33.8 °F 22.5 °F 24.8 °F 70% 29.09 in 9.0 mi SW 19.6 mph 24.2 mph 0.01 in Snow Light Snow
10:56 AM 34.0 °F 23.0 °F 23.0 °F 64% 29.12 in 10.0 mi SW 18.4 mph 23.0 mph 0.01 in   Mostly Cloudy
11:56 AM 34.0 °F 28.0 °F 24.1 °F 67% 29.15 in 10.0 mi WSW 6.9 mph 18.4 mph N/A   Mostly Cloudy
12:56 PM 35.1 °F 27.9 °F 23.0 °F 61% 29.16 in 10.0 mi WSW 9.2 mph - N/A   Scattered Clouds
1:56 PM 34.0 °F 28.8 °F 23.0 °F 64% 29.17 in 10.0 mi Variable 5.8 mph - 0.00 in   Partly Cloudy
2:56 PM 35.1 °F 26.9 °F 19.9 °F 54% 29.17 in 10.0 mi SW 11.5 mph 29.9 mph N/A   Partly Cloudy
3:56 PM 36.0 °F 28.5 °F 21.9 °F 57% 29.18 in 10.0 mi SW 10.4 mph - 0.00 in   Partly Cloudy
4:56 PM 35.1 °F 29.3 °F 19.9 °F 54% 29.19 in 10.0 mi South 6.9 mph - N/A   Partly Cloudy
5:56 PM 34.0 °F 23.8 °F 21.0 °F 59% 29.19 in 10.0 mi SSW 16.1 mph - 0.00 in   Partly Cloudy
6:56 PM 32.0 °F 24.2 °F 19.0 °F 59% 29.21 in 10.0 mi South 9.2 mph - N/A   Clear
7:56 PM 32.0 °F - 19.0 °F 59% 29.23 in 10.0 mi Calm Calm - N/A   Clear
8:56 PM 30.0 °F - 17.1 °F 59% 29.24 in 10.0 mi Calm Calm - N/A   Clear
9:56 PM 30.0 °F - 18.0 °F 61% 29.25 in 10.0 mi Calm Calm - N/A   Clear
10:56 PM 30.9 °F 26.2 °F 19.0 °F 61% 29.24 in 10.0 mi SSE 4.6 mph - N/A   Partly Cloudy
11:56 PM 33.1 °F 25.5 °F 21.9 °F 64% 29.26 in 10.0 mi SSW 9.2 mph - N/A   Mostly Cloudy